[ hide orbit diagram ]
For accurate long-term ephemerides, please instead use our Horizons system.This orbit viewer was implemented using two-body methods, and hence should not be used for determining accurate long-term trajectories (over several years or decades) or planetary encounter circumstances.
Orbital Elements at Epoch 2459000.5 (2020-May-31.0) TDB
Reference: JPL 11 (heliocentric ecliptic J2000)
Element | Value | Uncertainty (1-sigma) | Units |
e | .07112130626880886 | 6.8611e-08 | |
a | 3.127298434842009 | 3.6966e-08 | au |
q | 2.904880885063644 | 2.1855e-07 | au |
i | 1.636182464473355 | 8.134e-06 | deg |
node | 317.7082956744568 | 0.00029236 | deg |
peri | 172.5641721403795 | 0.00030157 | deg |
M | 35.94873278095957 | 6.9846e-05 | deg |
tp | 2458798.787179000816 (2019-Nov-11.28717900) | 0.00039267 | TDB |
period | 2020.004877561856 5.53 | 3.5816e-05 9.806e-08 | d yr |
n | .1782173914523017 | 3.1599e-09 | deg/d |
Q | 3.349715984620374 | 3.9595e-08 | au |
|
| | Orbit Determination Parameters
Additional Information
|
[ show covariance matrix ]
Physical Parameter Table
Parameter |
Symbol |
Value |
Units |
Sigma |
Reference |
Notes |
absolute magnitude |
H |
16.3 |
|
n/a |
MPO241466 |
|
diameter |
diameter |
4.630 |
km |
1.335 |
urn:nasa:pds:neowise_diameters_albedos::2.0[mainbelt] (http://adsabs.harvard.edu/abs/2011ApJ...741...68M) |
|
geometric albedo |
albedo |
0.025 |
|
0.015 |
urn:nasa:pds:neowise_diameters_albedos::2.0[mainbelt] (http://adsabs.harvard.edu/abs/2011ApJ...741...68M) |
|
|
233638 (2007 VP216) Discovered 2007-Nov-09 by Spacewatch at Kitt Peak |
Reference: 20100228/Numbers.arc | Last Updated: 2010-03-03 |
|
[ show close-approach data ]
Alternate Designations
2007 VP216 = 1995 SH73 = 2004 HN40 |
|
|